Location: Newark
(48.8833°N, 0.9236°W)
Time: 08:07:41
(UTC+00:00)

Vanguard 1 Rocket - Visible Passes

Search period start: 21 November 2019 00:00
Search period end: 01 December 2019 00:00
Orbit: 651 x 4226 km, 34.3° (Epoch: 20 November)

Date Brightness Start Highest point End Pass type
(mag) Time Alt. Az. Time Alt. Az. Time Alt. Az.
21 Nov 9.1 04:21:06 14° SSE 04:21:06 14° SSE 04:23:15 10° SE visible
21 Nov 9.4 06:41:55 10° SW 06:44:39 14° S 06:47:57 10° SSE visible
22 Nov 9.0 05:31:24 10° SW 05:33:56 14° S 05:36:52 10° SSE visible
23 Nov 9.1 04:24:12 14° SSE 04:24:12 14° SSE 04:25:52 10° SSE visible
23 Nov 9.7 06:46:46 10° SSW 06:47:26 10° SSW 06:48:08 10° S visible
24 Nov 9.1 05:35:00 10° SSW 05:36:42 12° S 05:38:33 10° SSE visible
25 Nov 9.2 04:27:15 12° S 04:27:15 12° S 04:28:16 10° SSE visible
